GSAT0221 (PRN E15)

Last updated on Oct. 24, 2020, 5:55 a.m. UTC

1 43564U 18060A   20297.04617121 -.00000092  00000-0  00000-0 0  9991
2 43564  56.8880  37.5596 0004322 249.6871 110.2732  1.70476175 14001
UTC
Height (km)
Latitude
Longitude
Inclination
Orbital Period
UTC large
Height (km)
Speed (km/s)
/
Latitude / Longitude
Inclination (degrees)
Orbital Period (minutes)
Azimuth
Elevation
Range (km)
Doppler Factor
iOS Compass Heading
iOS Angle

Next 30 passes for location: Hong Kong

Rise time Rise Azimuth (degrees) Set time Set Azimuth (degrees) Duration Max altitude (degrees)

No matching passes for this satellites